Tracking 18980 objects as of 22-Feb-2018
HD Live streaming from Space Station
objects crossing your sky now

FENGYUN 1C DEB

Track FENGYUN 1C DEB now!
10-day predictions


NORAD ID: 33733
Int'l Code: 1999-025DHW
Perigee: 806.4 km
Apogee: 963.5 km
Inclination: 99.2 °
Period: 102.5 minutes
Semi major axis: 7255 km
RCS: 0.0057 m2 (small)
Launch date: May 10, 1999
Source: People's Republic of China (PRC)
Launch site: Taiyaun Space Center, China (TSC)

Note: This is SATELLITE DEBRIS
aabbcc
Your satellite tracking list
Your tracking list is empty




NASA's NSSDC Master Catalog

Two Line Element Set (TLE):
1 33733U 99025DHW 18050.46319703 +.00000629 +00000-0 +40104-3 0  9990
2 33733 099.1766 042.3154 0108282 245.9133 266.0558 14.04633571502010
Source of the keplerian elements: AFSPC